Stations météo

réclame
Mon MeteoGroup
Berus, Allemagne (10704): Température de l'air & dewpoint: 13.11.2017 18:00:00 - 19.11.2017 18:00:00 (CET)Berus, Allemagne (10704): Température de l'air 5cm & Température de l'air -5cm: 13.11.2017 18:00:00 - 19.11.2017 18:00:00 (CET)Berus, Allemagne (10704): Température de l'air -20cm & Température de l'air -100cm: 13.11.2017 18:00:00 - 19.11.2017 18:00:00 (CET)Berus, Allemagne (10704): Vitesse du vent & gusts: 13.11.2017 18:00:00 - 19.11.2017 18:00:00 (CET)Berus, Allemagne (10704): Direction du vent: 13.11.2017 18:00:00 - 19.11.2017 18:00:00 (CET)Berus, Allemagne (10704): reduced air pressure: 13.11.2017 18:00:00 - 19.11.2017 18:00:00 (CET)Berus, Allemagne (10704): visibility: 13.11.2017 18:00:00 - 19.11.2017 18:00:00 (CET)Berus, Allemagne (10704): Ensoleillement: 13.11.2017 18:00:00 - 19.11.2017 18:00:00 (CET)Berus, Allemagne (10704): Quantités de précipitations: 13.11.2017 18:00:00 - 19.11.2017 18:00:00 (CET)
Date & Time tt [°C] td [°C] tt 5cm [°C] tt -5cm [°C] tt -20cm [°C] tt -100cm [°C] ff [km/h] ff [knt] fx [km/h] fx [knt] dd ppp [hPa] vv [km] sd [min] rr [mm]
19.11.2017 18:00:00 4,4 0,7 3,8 5,1 5,9 9,3 18 10 27 14 WSW 1022,7 70 0 0,0
19.11.2017 17:00:00 5,0 0,5 4,3 5,7 5,9 9,3 16 9 26 14 WSW 1022,3 70 0 0,0
19.11.2017 16:00:00 5,2 0,9 4,7 6,6 5,7 9,3 14 8 24 13 WSW 1022,0 70 0 0,0
19.11.2017 15:00:00 6,0 0,4 6,4 7,4 5,5 9,3 13 7 29 16 W 1021,7 70 23 0,0
19.11.2017 14:00:00 6,2 0,8 7,0 7,0 5,3 9,4 15 8 34 19 W 1021,5 70 7 0,0
19.11.2017 13:00:00 5,6 0,7 6,4 6,8 5,1 9,4 15 8 30 16 W 1021,4 70 28 0,0
19.11.2017 12:00:00 6,3 1,2 8,5 6,0 5,0 9,4 16 8 29 16 W 1021,2 45 60 0,0
19.11.2017 11:00:00 5,0 1,0 6,7 4,4 5,0 9,4 14 7 29 15 W 1021,2 45 60 0,0
19.11.2017 10:00:00 4,1 1,1 4,8 3,0 5,1 9,4 13 7 26 14 W 1020,8 46 60 0,0
19.11.2017 09:00:00 2,8 1,2 1,6 2,6 5,2 9,4 16 8 26 14 W 1020,3 36 7 0,0
19.11.2017 08:00:00 2,7 1,0 1,0 2,9 5,3 9,4 14 8 25 13 W 1019,5 35 0 0,0
19.11.2017 07:00:00 3,4 1,2 1,7 3,6 5,3 9,4 16 9 30 16 WNW 1018,8 41 0 0,0
19.11.2017 06:00:00 4,3 3,7 3,3 4,4 5,3 9,4 14 7 31 17 W 1018,1 11 0 0,0
19.11.2017 05:00:00 4,6 4,5 4,5 4,5 5,3 9,4 17 9 36 19 W 1017,5 6 0 0,1
19.11.2017 04:00:00 4,5 4,3 4,4 4,4 5,3 9,4 27 14 41 22 WSW 1017,2 4,0 0 0,2
19.11.2017 03:00:00 4,1 4,0 4,0 4,2 5,3 9,4 26 14 47 26 WSW 1017,4 4,8 0 0,6
19.11.2017 02:00:00 3,9 3,8 3,8 4,1 5,4 9,4 31 17 48 26 SW 1017,7 2,1 0 0,5
19.11.2017 01:00:00 3,6 3,5 3,5 4,0 5,4 9,4 38 20 55 30 SW 1018,4 1,0 0 1,9
19.11.2017 00:00:00 3,3 3,2 3,2 3,9 5,5 9,4 26 14 47 26 SW 1019,9 1,0 0 1,7
18.11.2017 23:00:00 3,3 2,7 3,0 3,9 5,5 9,4 29 16 42 23 SW 1020,2 4,4 0 0,2
18.11.2017 22:00:00 3,3 2,1 2,9 3,8 5,6 9,4 25 13 36 20 SW 1021,2 9 0 0,0
18.11.2017 21:00:00 3,1 1,6 2,9 3,8 5,7 9,4 26 14 39 21 SW 1021,8 9 0 0,0
18.11.2017 20:00:00 2,9 1,1 2,5 3,8 5,8 9,4 23 12 32 18 SW 1022,2 13 0 0,0
18.11.2017 19:00:00 3,3 1,3 2,9 4,4 5,9 9,4 23 12 33 18 SW 1022,5 13 0 0,0
18.11.2017 18:00:00 3,6 1,3 3,3 4,7 6,0 9,4 21 11 33 18 WSW 1022,9 16 0 0,0
18.11.2017 17:00:00 3,7 1,2 3,5 5,1 6,0 9,4 20 11 32 17 WSW 1022,9 19 0 0,0
18.11.2017 16:00:00 4,0 0,9 3,9 5,6 5,9 9,4 21 11 36 19 WSW 1023,1 24 0 0,0
18.11.2017 15:00:00 4,1 0,6 4,1 6,2 5,9 9,4 23 12 37 20 WSW 1023,4 27 0 0,0
18.11.2017 14:00:00 4,0 0,7 4,3 6,9 5,7 9,4 24 13 38 21 SW 1023,4 24 11 0,0
18.11.2017 13:00:00 4,4 2,0 6,0 6,5 5,6 9,5 22 12 28 15 SW 1023,9 10 17 0,0
18.11.2017 12:00:00 3,3 1,7 4,1 6,3 5,5 9,5 13 7 22 12 WSW 1025,4 8 4 0,0
18.11.2017 11:00:00 3,7 2,0 5,0 5,4 5,4 9,5 8 4 19 10 W 1025,6 7 21 0,0
18.11.2017 10:00:00 2,8 2,3 2,9 4,5 5,5 9,5 11 6 22 12 W 1025,5 3,6 0 0,0
18.11.2017 09:00:00 2,6 2,3 2,7 4,1 5,5 9,5 12 6 20 11 W 1025,7 2,3 0 0,0
18.11.2017 08:00:00 3,0 2,8 2,6 4,3 5,5 9,5 9 5 14 8 W 1025,0 1,0 0 0,0
18.11.2017 07:00:00 3,5 3,2 3,4 4,3 5,6 9,5 9 5 15 8 WNW 1024,9 1,5 0 0,0
18.11.2017 06:00:00 3,8 3,2 3,5 4,3 5,7 9,5 6 4 15 8 WNW 1024,8 6 0 0,0
18.11.2017 05:00:00 3,8 3,5 3,3 4,2 5,7 9,5 4 2 14 7 NW 1025,0 4,6 0 0,0
18.11.2017 04:00:00 3,8 3,5 2,9 4,8 5,7 9,5 9 5 15 8 WNW 1025,3 4,5 0 0,0
18.11.2017 03:00:00 4,4 4,3 4,0 5,0 5,8 9,5 6 3 11 6 WNW 1025,9 1,5 0 0,0
18.11.2017 02:00:00 4,6 4,5 4,4 5,1 5,8 9,5 4 2 14 7 W 1025,8 1,8 0 0,0
18.11.2017 01:00:00 4,6 4,6 4,5 5,1 5,8 9,5 9 5 14 8 WNW 1026,1 0,1 0 0,0
18.11.2017 00:00:00 4,4 4,3 4,4 5,2 5,8 9,5 9 5 11 6 W 1026,2 0,1 0 0,0
17.11.2017 23:00:00 4,8 4,6 4,7 5,3 5,8 9,6 7 4 15 8 W 1026,4 0,1 0 0,0
17.11.2017 22:00:00 4,9 4,8 4,7 5,4 5,8 9,6 8 4 14 8 WNW 1026,8 0,4 0 0,0
17.11.2017 21:00:00 4,9 4,6 4,6 5,4 5,9 9,6 5 3 8 4 SW 1026,6 1,7 0 0,0
17.11.2017 20:00:00 5,2 5,1 5,0 5,5 5,9 9,6 0 0 8 5 N 1026,8 0,9 0 0,0
17.11.2017 19:00:00 5,1 5,0 4,9 5,6 5,9 9,6 2 1 5 3 E 1026,7 0,2 0 0,0
17.11.2017 18:00:00 5,3 5,1 4,1 6,0 5,8 9,6 3 2 6 4 SW 1026,8 1,9 0 0,0
17.11.2017 17:00:00 5,4 5,2 4,9 6,7 5,7 9,6 6 3 11 6 SSE 1026,6 0,5 0 0,0
17.11.2017 16:00:00 5,8 5,3 6,1 7,2 5,5 9,6 6 3 9 5 NNW 1027,0 4,0 0 0,0
17.11.2017 15:00:00 5,7 5,2 6,3 7,2 5,3 9,6 4 2 8 4 N 1026,9 3,0 0 0,0
17.11.2017 14:00:00 5,4 4,9 6,0 7,2 5,0 9,6 2 1 8 4 NE 1027,1 2,4 0 0,0
17.11.2017 13:00:00 5,2 4,7 6,4 6,8 4,8 9,6 4 2 6 4 NE 1027,4 2,4 0 0,0
17.11.2017 12:00:00 4,6 4,1 5,8 5,7 4,7 9,6 0 0 5 3 N 1027,7 0,7 0 0,0
17.11.2017 11:00:00 3,3 3,1 3,9 4,4 4,6 9,7 1 1 5 3 NNW 1028,3 2,7 0 0,2
17.11.2017 10:00:00 2,6 2,4 2,9 3,8 4,6 9,7 4 2 6 3 W 1028,1 0,2 0 0,7
17.11.2017 09:00:00 2,3 2,2 2,6 3,4 4,6 9,7 1 1 6 4 NW 1028,0 0,7 0 0,0
17.11.2017 08:00:00 1,8 1,8 1,8 3,2 4,6 9,7 6 3 11 6 W 1027,5 0,1 0 0,0
17.11.2017 07:00:00 1,6 1,6 1,8 3,2 4,6 9,7 5 3 9 5 W 1027,4 0,1 0 0,0
17.11.2017 06:00:00 1,6 1,6 1,7 3,2 4,6 9,7 7 4 11 6 WSW 1027,2 0,1 0 0,0
17.11.2017 05:00:00 1,5 1,3 1,6 3,2 4,6 9,7 5 3 9 5 SW 1027,3 0,1 0 0,1
17.11.2017 04:00:00 1,5 1,5 1,6 3,2 4,7 9,7 6 4 9 5 SW 1027,2 0,1 0 0,0
17.11.2017 03:00:00 1,4 1,3 1,5 3,2 4,7 9,7 6 4 13 7 SW 1027,1 0,1 0 0,0
17.11.2017 02:00:00 1,2 1,1 1,3 3,2 4,7 9,7 11 6 18 10 SSW 1026,9 0,1 0 0,0
17.11.2017 01:00:00 1,2 1,1 1,3 3,3 4,7 9,7 8 4 13 7 SW 1027,4 0,1 0 0,0
17.11.2017 00:00:00 1,3 1,0 1,5 3,3 4,8 9,7 7 4 12 7 WSW 1027,4 0,1 0 0,0
16.11.2017 23:00:00 1,4 1,2 1,6 3,3 4,8 9,8 4 2 15 8 S 1027,3 0,2 0 0,0
16.11.2017 22:00:00 1,4 1,4 1,5 3,4 4,8 9,8 7 4 12 6 SW 1027,2 0,2 0 0,0
16.11.2017 21:00:00 1,3 1,2 1,5 3,5 4,8 9,8 8 4 11 6 SW 1027,1 0,2 0 0,0
16.11.2017 20:00:00 1,3 1,2 1,4 3,6 4,9 9,8 5 3 11 6 SW 1026,8 0,1 0 0,0
16.11.2017 19:00:00 1,5 1,3 1,7 3,8 4,9 9,8 3 1 7 4 S 1026,4 0,1 0 0,0
16.11.2017 18:00:00 1,5 1,4 1,6 3,9 4,8 9,8 5 3 9 5 SSW 1026,3 0,2 0 0,0
16.11.2017 17:00:00 1,4 1,3 1,7 4,2 4,8 9,8 3 2 11 6 SSE 1026,0 0,1 0 0,0
16.11.2017 16:00:00 1,8 1,6 2,2 4,5 4,7 9,8 4 2 7 4 SSW 1025,7 0,2 0 0,0
16.11.2017 15:00:00 1,8 1,4 2,3 4,6 4,6 9,8 3 2 8 4 ESE 1025,9 0,6 0 0,0
16.11.2017 14:00:00 1,9 1,4 2,6 4,5 4,4 9,8 3 2 9 5 ENE 1025,9 1,6 0 0,0
16.11.2017 13:00:00 1,9 1,7 2,6 4,3 4,3 9,8 7 4 13 7 E 1025,8 2,4 0 0,0
16.11.2017 12:00:00 1,6 1,4 2,4 3,8 4,2 9,8 8 4 13 7 NE 1026,6 0,3 0 0,0
16.11.2017 11:00:00 1,1 0,9 1,9 3,0 4,2 9,8 7 4 18 10 NE 1026,9 0,2 0 0,0
16.11.2017 10:00:00 0,8 0,8 1,2 2,6 4,2 9,9 12 7 20 11 ENE 1025,8 0,1 0 0,0
16.11.2017 09:00:00 1,0 0,9 1,2 2,2 4,2 9,9 11 6 21 12 ENE 1026,0 0,1 0 0,0
16.11.2017 08:00:00 0,9 0,8 0,9 1,8 4,2 9,9 13 7 20 11 ENE 1025,7 0,1 0 0,0
16.11.2017 07:00:00 0,8 0,7 0,7 1,5 4,3 9,9 6 4 21 11 NNE 1025,7 0,1 0 0,0
16.11.2017 06:00:00 0,9 0,8 0,6 1,2 4,4 9,9 11 6 21 12 ENE 1025,1 0,2 0 0,0
16.11.2017 05:00:00 0,6 0,4 -0,2 1,1 4,6 9,9 19 10 26 14 NE 1025,4 1,3 0 0,0
16.11.2017 04:00:00 1,0 0,5 0,0 1,2 4,7 9,9 18 10 22 12 NE 1025,5 3,8 0 0,0
16.11.2017 03:00:00 1,1 0,6 0,0 1,4 4,8 9,9 19 10 24 13 NE 1025,9 4,9 0 0,0
16.11.2017 02:00:00 1,5 0,6 0,2 1,6 5,0 9,9 19 10 23 13 NE 1026,1 8 0 0,0
16.11.2017 01:00:00 1,5 0,6 0,3 1,9 5,2 9,9 18 10 23 12 NE 1026,0 12 0 0,0
16.11.2017 00:00:00 2,0 0,8 0,4 2,1 5,3 9,9 16 9 21 12 NNE 1026,3 15 0 0,0
15.11.2017 23:00:00 2,1 1,6 0,9 2,5 5,5 9,9 16 9 19 10 NE 1026,6 6 0 0,0
15.11.2017 22:00:00 2,8 2,2 1,5 2,8 5,6 9,9 16 9 21 11 NE 1026,9 8 0 0,0
15.11.2017 21:00:00 3,4 2,7 1,8 3,2 5,8 10,0 15 8 19 10 NNE 1026,7 6 0 0,0
15.11.2017 20:00:00 3,5 2,8 2,0 3,6 5,9 10,0 14 7 16 9 NE 1026,9 5 0 0,0
15.11.2017 19:00:00 3,4 2,8 1,5 4,2 6,0 10,0 10 5 13 7 NNE 1027,1 4,2 0 0,0
15.11.2017 18:00:00 3,2 2,5 1,4 5,1 6,0 10,0 10 5 11 6 NE 1026,8 9 0 0,0
15.11.2017 17:00:00 3,7 2,7 2,6 6,2 5,9 10,0 8 4 10 5 NNE 1026,6 10 0 0,0
15.11.2017 16:00:00 4,0 2,3 4,4 6,9 5,7 10,0 3 1 5 3 NNW 1026,8 23 36 0,0
15.11.2017 15:00:00 4,2 3,1 6,6 7,3 5,5 10,0 0 0 6 4 N 1026,9 10 27 0,0
15.11.2017 14:00:00 2,6 2,4 4,3 6,8 5,3 10,0 3 1 8 5 NE 1027,3 0,1 0 0,0
15.11.2017 13:00:00 2,7 2,7 4,0 6,2 5,1 10,0 6 3 11 6 NE 1028,0 0,1 0 0,0
15.11.2017 12:00:00 2,4 2,4 3,4 5,5 5,0 10,0 7 4 16 8 NE 1028,4 0,1 0 0,0
15.11.2017 11:00:00 1,8 1,7 3,2 4,6 5,0 10,0 11 6 15 8 NE 1028,8 0,1 0 0,0
15.11.2017 10:00:00 1,1 1,1 1,9 3,7 5,0 10,0 9 5 13 7 NE 1028,9 0,1 0 0,0
15.11.2017 09:00:00 1,0 1,0 1,4 3,2 5,0 10,0 6 3 8 4 NE 1028,6 0,1 0 0,0
15.11.2017 08:00:00 0,8 0,8 1,0 3,0 5,0 10,1 6 3 9 5 NE 1028,5 0,1 0 0,0
15.11.2017 07:00:00 0,1 0,1 0,5 3,0 5,1 10,1 0 0 6 3 N 1028,2 0,1 0 0,0
15.11.2017 06:00:00 -0,1 -0,1 0,2 3,1 5,2 10,1 2 1 6 3 WSW 1028,3 0,1 0 0,0
15.11.2017 05:00:00 0,1 0,0 0,4 3,1 5,2 10,1 0 0 6 3 N 1028,3 0,1 0 0,0
15.11.2017 04:00:00 -0,3 -0,4 0,0 3,1 5,3 10,1 0 0 6 3 N 1028,6 0,1 0 0,0
15.11.2017 03:00:00 -0,3 -0,5 -0,1 3,2 5,4 10,1 0 0 7 4 N 1028,9 0,1 0 0,0
15.11.2017 02:00:00 -0,3 -0,3 0,0 3,3 5,5 10,1 0 0 8 4 N 1029,0 0,1 0 0,0
15.11.2017 01:00:00 -0,1 -0,1 0,0 3,5 5,6 10,1 5 3 10 5 W 1029,1 0,1 0 0,0
15.11.2017 00:00:00 0,2 0,2 0,2 3,8 5,6 10,1 7 4 10 6 WSW 1029,1 0,1 0 0,0
14.11.2017 23:00:00 0,7 0,7 1,0 3,9 5,7 10,1 6 3 9 5 SW 1029,0 0,1 0 0,0
14.11.2017 22:00:00 1,2 1,1 1,4 4,0 5,8 10,1 5 3 9 5 SSW 1029,0 0,1 0 0,0
14.11.2017 21:00:00 1,5 1,2 1,6 4,0 5,9 10,2 0 0 13 7 N 1028,8 0,1 0 0,0
14.11.2017 20:00:00 1,5 1,5 1,1 4,4 6,0 10,2 10 6 15 8 W 1028,6 0,2 0 0,0
14.11.2017 19:00:00 1,7 1,5 1,7 4,7 6,0 10,2 6 3 13 7 SW 1028,6 0,4 0 0,0
14.11.2017 18:00:00 1,4 1,4 1,4 5,3 6,0 10,2 10 5 14 8 WSW 1028,1 0,1 0 0,0
14.11.2017 17:00:00 1,8 1,7 2,0 6,3 5,9 10,2 11 6 14 8 WSW 1027,9 0,2 0 0,0
14.11.2017 16:00:00 2,5 2,0 2,7 7,4 5,7 10,2 10 6 14 8 W 1027,5 1,7 37 0,0
14.11.2017 15:00:00 4,8 1,4 7,3 8,7 5,3 10,2 7 4 13 7 WNW 1027,0 27 60 0,0
14.11.2017 14:00:00 6,2 1,7 10,2 8,5 4,9 10,2 7 4 11 6 W 1026,8 39 60 0,0
14.11.2017 13:00:00 4,6 1,7 9,4 7,5 4,6 10,2 3 2 8 4 NNE 1027,4 14 60 0,0
14.11.2017 12:00:00 4,3 0,9 6,7 5,8 4,4 10,2 4 2 7 4 SSW 1027,6 14 60 0,0
14.11.2017 11:00:00 2,7 0,1 5,4 3,7 4,4 10,2 3 1 6 3 NNE 1028,1 11 60 0,0
14.11.2017 10:00:00 2,6 0,4 3,7 1,8 4,4 10,2 1 1 6 3 NNE 1027,8 11 60 0,0
14.11.2017 09:00:00 2,2 1,0 0,0 1,3 4,5 10,3 0 0 9 5 N 1027,3 11 26 0,0
14.11.2017 08:00:00 1,8 1,0 -0,3 1,4 4,6 10,3 5 3 19 10 NNW 1026,8 12 0 0,0
14.11.2017 07:00:00 1,9 1,0 0,3 1,5 4,7 10,3 6 3 19 10 NNW 1026,4 13 0 0,0
14.11.2017 06:00:00 2,0 1,1 0,3 1,5 4,8 10,3 10 5 20 11 NNW 1026,0 12 0 0,0
14.11.2017 05:00:00 2,2 1,4 0,7 1,5 5,0 10,3 13 7 19 10 NW 1025,5 12 0 0,0
14.11.2017 04:00:00 2,7 1,5 -0,1 1,7 5,1 10,3 6 3 11 6 N 1025,2 22 0 0,0
14.11.2017 03:00:00 2,3 1,4 0,0 1,6 5,3 10,3 6 3 10 5 NW 1025,3 19 0 0,0
14.11.2017 02:00:00 2,2 1,3 -0,8 1,9 5,5 10,3 7 4 13 7 NNW 1024,9 24 0 0,0
14.11.2017 01:00:00 2,3 1,2 -0,2 2,3 5,7 10,3 7 4 21 12 N 1024,7 22 0 0,0
14.11.2017 00:00:00 2,9 1,6 0,8 2,7 5,8 10,3 10 6 20 11 NNW 1024,3 30 0 0,0
13.11.2017 23:00:00 3,3 1,6 0,8 3,2 5,9 10,3 14 8 26 14 N 1023,9 37 0 0,0
13.11.2017 22:00:00 3,5 1,7 1,5 3,8 6,0 10,3 17 9 24 13 NNW 1023,5 41 0 0,0
13.11.2017 21:00:00 3,7 2,0 1,5 4,5 6,1 10,4 11 6 22 12 N 1023,2 48 0 0,0
13.11.2017 20:00:00 4,6 1,9 3,9 4,8 6,2 10,4 11 6 22 12 N 1022,4 70 0 0,0
13.11.2017 19:00:00 4,5 2,0 3,7 4,9 6,2 10,4 12 6 23 12 N 1022,1 56 0 0,0
13.11.2017 18:00:00 5,1 1,9 4,2 5,2 6,2 10,4 10 6 22 12 NNW 1021,2 58 0 0,0

tt = Température de l'air
td = dewpoint
tt 5cm = Température de l'air 5cm
tt -5cm = Température de l'air -5cm
tt -20cm = Température de l'air -20cm
tt -100cm = Température de l'air -100cm
ff = Vitesse du vent
fx = gusts
dd = Direction du vent
ppp = reduced air pressure
vv = visibility
sd = Ensoleillement
rr = Quantités de précipitations

stations d'obs. à proximité